Change the Weather History Date:

Monday, January 7, 2013

  Actual Average Record
Temperature  
Mean Temperature 24 °F 27 °F  
Max Temperature 42 °F 41 °F 57 °F (2006)
Min Temperature 6 °F 14 °F -2 °F (2000)
Degree Days  
Heating Degree Days 41 38  
Month to date heating degree days 368 266  
Since 1 July heating degree days 2822 2924  
Cooling Degree Days 0 0  
Month to date cooling degree days 0 0  
Year to date cooling degree days 0 0  
Moisture  
Dew Point 7 °F    
Average Humidity 53    
Maximum Humidity 80    
Minimum Humidity 25    
Precipitation  
Precipitation 0.00 in 0.04 in 0.21 in (2008)
Month to date precipitation 0.00 0.26  
Year to date precipitation 0.00 0.26  
Sea Level Pressure  
Sea Level Pressure 30.13 in    
Wind  
Wind Speed 4 mph (ENE)    
Max Wind Speed 12 mph    
Max Gust Speed 12 mph    
Visibility 10 miles    
Events      
T = Trace of Precipitation, MM = Missing Value Source: NWS Daily Summary

Daily Weather History Graph

Daily Weather History Graph

Search for Another Location

Airport or City:

Trip Planner

Search our weather history database for the weather conditions in past years. The results will help you decide how hot, cold, wet, or windy it might be!

Date:

Astronomy

Jan. 07, 2013 Rise Set
Actual Time 7:28 AM MST 5:13 PM MST
Civil Twilight 7:00 AM MST 5:42 PM MST
Nautical Twilight 6:27 AM MST 6:14 PM MST
Astronomical Twilight 5:56 AM MST 6:45 PM MST
Moon 2:57 AM MST (1/7) 1:25 PM MST (1/7)
Length of Visible Light 10h 41m
Length of Day
9h 44m
Waning Crescent, 22% of the Moon is Illuminated
Jan 7
Waning Crescent
Jan 11
New
Jan 18
First Quarter
Jan 26
Full
Feb 3
Last Quarter

Hourly Weather History & Observations

Time (MST) Temp. Windchill Dew Point Humidity Pressure Visibility Wind Dir Wind Speed Gust Speed Precip Events Conditions
12:53 AM 19.0 °F 13.9 °F 8.1 °F 62% 30.13 in 10.0 mi ENE 3.5 mph - N/A   Clear
1:53 AM 12.9 °F 2.6 °F 5.0 °F 71% 30.14 in 10.0 mi ENE 6.9 mph - N/A   Clear
2:53 AM 15.1 °F 6.4 °F 7.0 °F 70% 30.13 in 10.0 mi ENE 5.8 mph - N/A   Clear
3:53 AM 12.0 °F 2.7 °F 3.9 °F 70% 30.14 in 10.0 mi ENE 5.8 mph - N/A   Clear
4:53 AM 14.0 °F 5.1 °F 6.1 °F 71% 30.13 in 10.0 mi East 5.8 mph - N/A   Clear
5:53 AM 14.0 °F 5.1 °F 6.1 °F 71% 30.12 in 10.0 mi East 5.8 mph - N/A   Clear
6:53 AM 16.0 °F - 7.0 °F 68% 30.12 in 10.0 mi Calm Calm - N/A   Clear
7:53 AM 9.0 °F - 3.0 °F 77% 30.17 in 10.0 mi Calm Calm - N/A   Clear
8:53 AM 15.1 °F - 6.1 °F 68% 30.17 in 10.0 mi Calm Calm - N/A   Clear
9:53 AM 26.1 °F 20.5 °F 8.1 °F 47% 30.14 in 10.0 mi ENE 4.6 mph - N/A   Clear
10:53 AM 32.0 °F - 9.0 °F 38% 30.12 in 10.0 mi Calm Calm - N/A   Clear
11:53 AM 34.0 °F - 10.9 °F 38% 30.07 in 10.0 mi Calm Calm - N/A   Clear
1:53 PM 39.0 °F - 9.0 °F 29% 30.04 in 10.0 mi Calm Calm - N/A   Clear
4:53 PM 33.1 °F - 17.1 °F 52% 30.06 in 10.0 mi Calm Calm - N/A   Clear
5:53 PM 19.9 °F 12.1 °F 10.9 °F 68% 30.13 in 10.0 mi ESE 5.8 mph - N/A   Clear
6:53 PM 17.1 °F 7.6 °F 8.1 °F 68% 30.13 in 10.0 mi ESE 6.9 mph - N/A   Clear
7:53 PM 15.1 °F 3.3 °F 7.0 °F 70% 30.18 in 10.0 mi NE 9.2 mph - N/A   Clear
8:53 PM 12.0 °F 1.5 °F 5.0 °F 73% 30.17 in 10.0 mi East 6.9 mph - N/A   Clear
9:53 PM 9.0 °F -2.2 °F 3.0 °F 77% 30.14 in 10.0 mi ENE 6.9 mph - N/A   Clear
10:53 PM 9.0 °F -2.2 °F 3.0 °F 77% 30.11 in 10.0 mi ENE 6.9 mph - N/A   Clear
11:53 PM 7.0 °F -1.7 °F 1.0 °F 77% 30.12 in 10.0 mi East 4.6 mph - N/A   Clear